WetterOnline ( https://www.wetteronline.de )

Wetter aktuell Weißenburg

Aktuelles Wetter: Weißenburg (424m)

6-stündlich | Neueste Meldungen
Ortszeit Temperatur Wetter
Sa, 24.08. 2:00 13.4° C wolkenlos
Fr, 23.08. 20:00 21.6° C wolkenlos
Fr, 23.08. 14:00 23.4° C leicht bewölkt
Fr, 23.08. 8:00 12.4° C wolkenlos
Fr, 23.08. 2:00 11.7° C wolkenlos
Do, 22.08. 20:00 20.8° C wolkenlos
Do, 22.08. 14:00 21.8° C wolkenlos
Do, 22.08. 8:00 10.2° C Nebel
Ortszeit Temperatur Wetter
Sa, 24.08. 7:00 14.1° C bedeckt
Sa, 24.08. 6:50 14.1° C bedeckt
Sa, 24.08. 6:40 13.7° C bewölkt
Sa, 24.08. 6:30 13.3° C leicht bewölkt
Sa, 24.08. 6:20 13.3° C leicht bewölkt
Sa, 24.08. 6:10 13.0° C wolkenlos
Sa, 24.08. 6:00 13.5° C fast wolkenlos
Sa, 24.08. 5:30 14.2° C bedeckt
Sa, 24.08. 5:00 14.2° C bedeckt
Sa, 24.08. 4:30 14.1° C bedeckt
Sa, 24.08. 4:00 13.7° C bedeckt
Ortszeit Relative Feuchte Sichtweite
Sa, 24.08. 2:00 97% 7 km
Fr, 23.08. 20:00 60% 35 km
Fr, 23.08. 14:00 50% 40 km
Fr, 23.08. 8:00 87% 9 km
Fr, 23.08. 2:00 97% 17 km
Do, 22.08. 20:00 52% 70 km
Do, 22.08. 14:00 45% 30 km
Do, 22.08. 8:00 100% 100 m
Ortszeit Relative Feuchte Sichtweite
Sa, 24.08. 7:00 97% 5.0 km
Sa, 24.08. 6:50 97% -
Sa, 24.08. 6:40 98% -
Sa, 24.08. 6:30 99% 6 km
Sa, 24.08. 6:20 99% -
Sa, 24.08. 6:10 98% -
Sa, 24.08. 6:00 97% 7 km
Sa, 24.08. 5:30 97% 6 km
Sa, 24.08. 5:00 96% 5.0 km
Sa, 24.08. 4:30 96% 7 km
Sa, 24.08. 4:00 97% 10 km
Ortszeit Niederschlagsmenge Niederschlagsart
Sa, 24.08. 2:00 0.0 l/m2 in 6 Std. -
Fr, 23.08. 20:00 0.0 l/m2 in 12 Std. -
Fr, 23.08. 14:00 0.0 l/m2 in 6 Std. -
Fr, 23.08. 8:00 0.0 l/m2 in 12 Std. -
Fr, 23.08. 2:00 0.0 l/m2 in 6 Std. -
Do, 22.08. 20:00 0.0 l/m2 in 12 Std. -
Do, 22.08. 14:00 0.0 l/m2 in 6 Std. -
Do, 22.08. 8:00 0.0 l/m2 in 12 Std. -
Ortszeit Niederschlagsmenge Niederschlagsart
Sa, 24.08. 7:00 0.0 l/m2 in 1 Std. -
Sa, 24.08. 6:50 keine Meldung -
Sa, 24.08. 6:40 keine Meldung -
Sa, 24.08. 6:30 0.0 l/m2 in 1 Std. -
Sa, 24.08. 6:20 keine Meldung -
Sa, 24.08. 6:10 keine Meldung -
Sa, 24.08. 6:00 0.0 l/m2 in 1 Std. -
Sa, 24.08. 5:30 0.0 l/m2 in 1 Std. -
Sa, 24.08. 5:00 0.0 l/m2 in 1 Std. -
Sa, 24.08. 4:30 0.0 l/m2 in 1 Std. -
Sa, 24.08. 4:00 0.0 l/m2 in 1 Std. -
Ortszeit Stärke Spitze Richtung
km/h Bft. km/h Grad Sektor
Sa, 24.08. 2:00 2 1 9 170° S
Fr, 23.08. 20:00 7 2 29 70° O
Fr, 23.08. 14:00 15 3 26 60° NO
Fr, 23.08. 8:00 2 1 11 170° S
Fr, 23.08. 2:00 7 2 18 200° S
Do, 22.08. 20:00 7 2 25 40° NO
Do, 22.08. 14:00 14 3 25 50° NO
Do, 22.08. 8:00 4 1 7 330° NW
Ortszeit Stärke Spitze Richtung
km/h Bft. km/h Grad Sektor
Sa, 24.08. 7:00 0 0 4 - -
Sa, 24.08. 6:50 0 0 - 330° NW
Sa, 24.08. 6:40 2 1 - 190° S
Sa, 24.08. 6:30 0 0 4 - -
Sa, 24.08. 6:20 0 0 - 30° NO
Sa, 24.08. 6:10 2 1 - 330° NW
Sa, 24.08. 6:00 0 0 7 - -
Sa, 24.08. 5:30 0 0 4 - -
Sa, 24.08. 5:00 0 0 7 - -
Sa, 24.08. 4:30 4 1 7 350° N
Sa, 24.08. 4:00 4 1 7 330° NW
Ortszeit Untergrenze Bedeckung Gattung
total tief tief mittel hoch
Sa, 24.08. 2:00 - 0/8 0/8 - - -
Fr, 23.08. 20:00 - 0/8 0/8 - - -
Fr, 23.08. 14:00 1380 m 4/8 4/8 - - -
Fr, 23.08. 8:00 - 0/8 0/8 - - -
Fr, 23.08. 2:00 - 0/8 0/8 - - -
Do, 22.08. 20:00 - 0/8 0/8 - - -
Do, 22.08. 14:00 - 0/8 0/8 - - -
Do, 22.08. 8:00 <30 m 8/8 0/8 - - -
Ortszeit Bedeckungsgrad in Achtel und Wolkenuntergrenze
Sa, 24.08. 7:00 8(1260m)
Sa, 24.08. 6:50 8(1260m)
Sa, 24.08. 6:40 7(1260m)
Sa, 24.08. 6:30 3(1260m)
Sa, 24.08. 6:20 3(1260m)
Sa, 24.08. 6:10 keine Wolken
Sa, 24.08. 6:00 1(1380m)
Sa, 24.08. 5:30 8(1380m)
Sa, 24.08. 5:00 8(1380m)
Sa, 24.08. 4:30 8(1380m)
Sa, 24.08. 4:00 8(1260m)
Ortszeit Luftdruck NN (hPa) Tendenz (hPa in 3 Std.)
Sa, 24.08. 2:00 1023 - 0,9
Fr, 23.08. 20:00 1022 - 0,4
Fr, 23.08. 14:00 1024 - 1,3
Fr, 23.08. 8:00 1027 + 0,2
Fr, 23.08. 2:00 1027 0,0
Do, 22.08. 20:00 1024 + 0,1
Do, 22.08. 14:00 1024 - 0,8
Do, 22.08. 8:00 1027 + 0,5
Ortszeit Luftdruck NN (hPa) Tendenz (hPa in 3 Std.)
Sa, 24.08. 7:00 1022 - 0,2
Sa, 24.08. 6:50 1022 keine Meldung
Sa, 24.08. 6:40 1022 keine Meldung
Sa, 24.08. 6:30 1022 - 0,6
Sa, 24.08. 6:20 1022 keine Meldung
Sa, 24.08. 6:10 1022 keine Meldung
Sa, 24.08. 6:00 1022 - 0,7
Sa, 24.08. 5:30 1022 - 0,8
Sa, 24.08. 5:00 1022 - 0,7
Sa, 24.08. 4:30 1022 - 0,7
Sa, 24.08. 4:00 1022 - 0,9
Ortszeit Schneehöhe (cm)
Sa, 24.08. 2:00 -
Fr, 23.08. 20:00 -
Fr, 23.08. 14:00 -
Fr, 23.08. 8:00 -
Fr, 23.08. 2:00 -
Do, 22.08. 20:00 -
Do, 22.08. 14:00 -
Do, 22.08. 8:00 -
Ortszeit Schneehöhe (cm)
Sa, 24.08. 7:00 -
Sa, 24.08. 6:50 -
Sa, 24.08. 6:40 -
Sa, 24.08. 6:30 -
Sa, 24.08. 6:20 -
Sa, 24.08. 6:10 -
Sa, 24.08. 6:00 -
Sa, 24.08. 5:30 -
Sa, 24.08. 5:00 -
Sa, 24.08. 4:30 -
Sa, 24.08. 4:00 -
Link zu dieser Seite / Seite empfehlen

Das Wetter in ...